Terminal Aerodrome Forecast
Issued by NWS

Home | Current Version | Previous Version | Graphics & Text | Print | Product List | Glossary On
Versions: 1 2 3 4 5 6 7 8 9 10 11 12 13 14 15 16 17 18 19 20
000
FTUS43 KGRB 231536 AAA
TAFAUW
TAF AMD
KAUW 231536Z 2316/2412 07010G14KT P6SM SCT050
     FM232000 06009KT P6SM SCT040 BKN080
     FM232300 10006KT P6SM SCT030 BKN050=

USA.gov is the U.S. government's official web portal to all federal, state and local government web resources and services.